DELTA 1 DEB, 7127

Orbit data source: Space-Track

DELTA 1 DEB, 7127 is space debris in SSO originally from a launch on Tue, 06 Nov 1973 UTC launched from the Air Force Western Test Range (AFWTR). Debris objects in space refer to the collection of defunct objects orbiting the Earth. Examples of debris include non-operational satellites, rocket bodies, and fragments generated from explosions, collisions, or faulty payload assembly.

Loading next visibility...
Identifier
7127, 1973-086CR
Orbit
SSO
Country
Flag of USUS
Related business
Manufacturer
Unknown
Mission
Spacecraft
Bus & Motor
Unknown
Mass
Unknown
Launch date (UTC)
1973-11-06 (52 years ago)
Launch vehicle
Unknown
Launch site
Air Force Western Test Range (AFWTR)
Object type
Payload
Rocket body
Debris
Shape & HBR
Unknown shape, 0.2 m
Radar Cross Section
Small (<0.1 m²)

Expand to show TLE details & history
Last TLE update: 1 day ago

TLE from 1 day ago
0 DELTA 1 DEB
1 07127U 73086CR  25291.69627828  .00000299  00000-0  37522-2 0  9999
2 07127 101.8883 326.0506 0265706   5.4376 108.8587 12.00698631276133
Epoch: 2025-10-18T16:42Z
TLE epoch observation values (Epoch: 2025-10-18T16:42:38.443Z)
Latitude
60.63489°
Longitude
-110.17124°
Altitude
1,762.095 km
Speed
6.972 km/s
True Right ascension
11h 11m 39s
True Declination
60° 30' 21"
Sunlit
Object was in daylight at epoch
Visualization orbit readout
Latitude
Unknown
Longitude
Unknown
Altitude
Unknown
Speed
Unknown
Apparent Right ascension
Unknown
Apparent Declination
Unknown
Sunlit
N/A
Visualization observer readout
Local Sidereal Time
21:38:56
Azimuth
Unknown
Elevation
Unknown
Doppler factor
Unknown
Orbital elements
Apogee altitude
1,889.337 km
Perigee altitude
1,461.365 km
Semi-major axis
8,053.488 km
Eccentricity
0.02657
Inclination
101.8883°
RAAN
326.0506°
Arg. of periapsis
5.4376°
True anomaly
111.70823°
Mean anomaly
108.8587°
Eccentric anomaly
110.28665°
Mean motion
3.00308 °/min
Orbital period
119.88 mins
BSTAR
0.0037522
Loading maneuver chart data...
Computing Atmospheric mass density...
Loading historical data...
Loading historical data...
Loading historical data...
Loading historical data...
Loading historical data...
Loading historical data...
Loading historical data...

Documentation

Showing up to 5 results
|